Gerona, Spain

12:38 AM CET on December 09, 2016 (GMT +0100)
Girona

Weather History for LEGE - March, 2014

Change the Weather History Date:

Thursday, March 20, 2014

  Actual Average Record
Temperature  
Mean Temperature 51 °F -  
Max Temperature 62 °F 65 °F 75 °F (2001)
Min Temperature 40 °F 43 °F 32 °F (2008)
Degree Days  
Heating Degree Days 14    
Growing Degree Days 1 (Base 50)    
Moisture  
Dew Point 47 °F    
Average Humidity 83    
Maximum Humidity 100    
Minimum Humidity 54    
Precipitation  
Precipitation 0.00 in 0.09 in - ()
Sea Level Pressure  
Sea Level Pressure 30.14 in    
Wind  
Wind Speed 2 mph ()    
Max Wind Speed 12 mph    
Max Gust Speed -    
Visibility 4.9 miles    
Events Fog    
Averages and records for this station are not official NWS values.
T = Trace of Precipitation, MM = Missing Value Source: Averaged Metar Reports

Daily Weather History Graph

Daily Weather History Graph

Search for Another Location

Airport or City:

Trip Planner

Search our weather history database for the weather conditions in past years. The results will help you decide how hot, cold, wet, or windy it might be!

Date:

Astronomy

Mar. 20, 2014 Rise Set
Actual Time 6:52 AM CET 7:00 PM CET
Civil Twilight 6:24 AM CET 7:28 PM CET
Nautical Twilight 5:52 AM CET 8:01 PM CET
Astronomical Twilight 5:19 AM CET 8:34 PM CET
Moon 11:09 PM CET (3/20) 8:44 AM CET (3/20)
Length of Visible Light 13h 03m
Length of Day
12h 08m
Waning Gibbous, 86% of the Moon is Illuminated
Mar 20
Waning Gibbous
Mar 24
Last Quarter
Mar 30
New
Apr 7
First Quarter
Apr 15
Full

Hourly Weather History & Observations

Time (CET) Temp. Dew Point Humidity Pressure Visibility Wind Dir Wind Speed Gust Speed Precip Events Conditions
12:00 AM 46 °F 45 °F 95% 30.16 in - Calm Calm - -  
12:00 AM 44.6 °F 44.6 °F 100% 30.15 in 1.6 mi Calm Calm - N/A Fog Mist
12:30 AM 44.6 °F 42.8 °F 93% 30.15 in 1.2 mi Calm Calm - N/A Fog Mist
12:41 AM 44.6 °F 42.8 °F 93% 30.15 in 0.3 mi Calm Calm - N/A Fog Fog
1:00 AM 44 °F 44 °F 98% 30.15 in 0 mi Calm Calm - - Fog Heavy Fog
1:00 AM 46.4 °F 44.6 °F 93% 30.15 in 0.5 mi Calm Calm - N/A Fog Fog
1:30 AM 42.8 °F 42.8 °F 100% 30.15 in 0.4 mi Calm Calm - N/A Fog Fog
2:00 AM 44 °F 44 °F 97% 30.15 in - Calm Calm - -  
2:00 AM 44.6 °F 42.8 °F 93% 30.15 in 0.9 mi Variable 1.2 mph - N/A Fog Patches of Fog
2:30 AM 42.8 °F 41.0 °F 93% 30.12 in 0.3 mi Calm Calm - N/A Fog Patches of Fog
3:00 AM 41 °F 41 °F 98% 30.14 in - Calm Calm - -  
3:00 AM 41.0 °F 39.2 °F 93% 30.12 in 0.3 mi Calm Calm - N/A Fog Patches of Fog
3:30 AM 42.8 °F 41.0 °F 93% 30.12 in 1.6 mi Calm Calm - N/A Fog Patches of Fog
4:00 AM 41 °F 41 °F 100% 30.13 in - Calm Calm - -  
4:00 AM 41.0 °F 41.0 °F 100% 30.12 in 1.6 mi Calm Calm - N/A Fog Patches of Fog
4:30 AM 41.0 °F 41.0 °F 100% 30.12 in 1.6 mi Calm Calm - N/A Fog Patches of Fog
5:00 AM 41 °F 41 °F 100% 30.14 in - Calm Calm - -  
5:00 AM 41.0 °F 41.0 °F 100% 30.12 in 1.6 mi Calm Calm - N/A Fog Patches of Fog
5:30 AM 42.8 °F 41.0 °F 93% 30.12 in 1.2 mi Calm Calm - N/A Fog Patches of Fog
6:00 AM 41.0 °F 41.0 °F 100% 30.15 in 3.1 mi Calm Calm - N/A Fog Patches of Fog
6:30 AM 42.8 °F 42.8 °F 100% 30.15 in 4.3 mi Calm Calm - N/A Fog Patches of Fog
7:00 AM 47 °F 45 °F 91% 30.14 in 6 mi NNW 3.5 mph - -   Mostly Cloudy
7:00 AM 48.2 °F 44.6 °F 87% 30.12 in 5.0 mi NW 4.6 mph - N/A Fog Patches of Fog
7:30 AM 46.4 °F 44.6 °F 93% 30.12 in 6.2 mi Variable 2.3 mph - N/A   Scattered Clouds
8:00 AM 50 °F 47 °F 85% 30.14 in - NW 2.3 mph - -  
8:00 AM 50.0 °F 46.4 °F 87% 30.15 in 6.2 mi Variable 2.3 mph - N/A   Mostly Cloudy
8:30 AM 50.0 °F 46.4 °F 87% 30.15 in 6.2 mi Variable 1.2 mph - N/A   Mostly Cloudy
9:00 AM 53 °F 49 °F 84% 30.15 in - Calm Calm - -  
9:00 AM 51.8 °F 48.2 °F 88% 30.15 in 6.2 mi Variable 1.2 mph - N/A   Mostly Cloudy
9:30 AM 53.6 °F 50.0 °F 88% 30.15 in 6.2 mi NE 3.5 mph - N/A   Scattered Clouds
10:00 AM 57 °F 51 °F 74% 30.16 in 9 mi NNE 9.2 mph - -   Partly Cloudy
10:00 AM 55.4 °F 50.0 °F 82% 30.15 in 6.2 mi NE 8.1 mph - N/A   Scattered Clouds
10:30 AM 57.2 °F 50.0 °F 77% 30.15 in 6.2 mi NE 11.5 mph - N/A   Scattered Clouds
11:00 AM 58 °F 51 °F 71% 30.15 in - NE 10.4 mph - -  
11:00 AM 57.2 °F 50.0 °F 77% 30.15 in 6.2 mi NNE 9.2 mph - N/A   Mostly Cloudy
11:30 AM 57.2 °F 50.0 °F 77% 30.15 in 6.2 mi NE 10.4 mph - N/A   Mostly Cloudy
12:00 PM 58 °F 52 °F 73% 30.15 in - NE 9.2 mph - -  
12:00 PM 57.2 °F 50.0 °F 77% 30.15 in 6.2 mi NE 9.2 mph - N/A   Mostly Cloudy
12:30 PM 57.2 °F 50.0 °F 77% 30.15 in 6.2 mi NNE 8.1 mph - N/A   Mostly Cloudy
1:00 PM 59 °F 52 °F 71% 30.15 in 7 mi NNE 9.2 mph - -   Mostly Cloudy
1:00 PM 57.2 °F 50.0 °F 77% 30.15 in 6.2 mi NNE 8.1 mph - N/A   Mostly Cloudy
1:30 PM 57.2 °F 50.0 °F 77% 30.15 in 6.2 mi NNE 8.1 mph - N/A   Mostly Cloudy
2:00 PM 60 °F 51 °F 64% 30.13 in - NNE 11.5 mph - -  
2:00 PM 59.0 °F 50.0 °F 72% 30.15 in 6.2 mi NNE 11.5 mph - N/A   Mostly Cloudy
2:30 PM 59.0 °F 50.0 °F 72% 30.12 in 6.2 mi NE 8.1 mph - N/A   Mostly Cloudy
3:00 PM 62 °F 50 °F 56% 30.12 in - NNE 6.9 mph - -  
3:00 PM 60.8 °F 50.0 °F 68% 30.12 in 6.2 mi NNE 9.2 mph - N/A   Mostly Cloudy
3:30 PM 60.8 °F 48.2 °F 63% 30.12 in 6.2 mi NE 6.9 mph - N/A   Mostly Cloudy
4:00 PM 61 °F 49 °F 54% 30.11 in 7 mi ENE 6.9 mph - -   Overcast
4:00 PM 59.0 °F 48.2 °F 67% 30.12 in 6.2 mi ENE 6.9 mph - N/A   Mostly Cloudy
4:30 PM 59.0 °F 48.2 °F 67% 30.12 in 6.2 mi NE 6.9 mph - N/A   Mostly Cloudy
5:00 PM 60 °F 48 °F 55% 30.11 in - NE 6.9 mph - -  
5:00 PM 59.0 °F 48.2 °F 67% 30.12 in 6.2 mi NE 4.6 mph - N/A   Mostly Cloudy
5:30 PM 59.0 °F 46.4 °F 63% 30.12 in 6.2 mi NE 5.8 mph - N/A   Mostly Cloudy
6:00 PM 58 °F 47 °F 59% 30.11 in - NE 6.9 mph - -  
6:00 PM 57.2 °F 48.2 °F 72% 30.12 in 6.2 mi NE 6.9 mph - N/A   Mostly Cloudy
6:30 PM 57.2 °F 48.2 °F 72% 30.12 in 6.2 mi ENE 3.5 mph - N/A   Scattered Clouds
7:00 PM 56 °F 49 °F 71% 30.13 in 6 mi Calm Calm - -   Partly Cloudy
7:00 PM 55.4 °F 48.2 °F 77% 30.12 in 6.2 mi East 1.2 mph - N/A   Scattered Clouds
7:30 PM 53.6 °F 48.2 °F 82% 30.12 in 6.2 mi Variable 1.2 mph - N/A   Scattered Clouds
8:00 PM 54 °F 49 °F 79% 30.13 in - West 2.3 mph - -  
8:00 PM 53.6 °F 48.2 °F 82% 30.12 in 6.2 mi West 1.2 mph - N/A   Scattered Clouds
8:30 PM 53.6 °F 50.0 °F 88% 30.15 in 5.6 mi Variable 1.2 mph - N/A   Scattered Clouds
9:00 PM 54 °F 50 °F 80% 30.14 in - WSW 2.3 mph - -  
9:00 PM 53.6 °F 50.0 °F 88% 30.15 in 5.6 mi Variable 1.2 mph - N/A   Mostly Cloudy
9:30 PM 53.6 °F 48.2 °F 82% 30.15 in 6.2 mi Variable 1.2 mph - N/A   Scattered Clouds
10:00 PM 53 °F 49 °F 82% 30.15 in 12 mi SW 1.2 mph - -   Mostly Cloudy
10:00 PM 53.6 °F 48.2 °F 82% 30.15 in 6.2 mi SW 1.2 mph - N/A   Mostly Cloudy
10:30 PM 53.6 °F 50.0 °F 88% 30.15 in 5.6 mi Calm Calm - N/A   Mostly Cloudy
11:00 PM 53 °F 50 °F 86% 30.15 in - Calm Calm - -  
11:00 PM 53.6 °F 50.0 °F 88% 30.15 in 5.0 mi Calm Calm - N/A   Scattered Clouds
11:30 PM 51.8 °F 50.0 °F 94% 30.15 in 4.3 mi Calm Calm - N/A   Partly Cloudy